Weather in Santa Cruz

United States     36°58′26″N   122°01′51″W
temp.,
°C
wind,
m/s
gust,
m/s
humid.,
%
clouds,
%
prec.,
mm/h
press.,
hPa
HPBL,
m
25 may, wed
wed2523:00+18n11415 0.0 100914
02:00+18n01375 0.0 100911
05:00+16ese114850 0.0 100911
08:00+18s12528 0.0 1010100
11:00+21sw344878 0.0 1011432
14:00+21sw4556100 0.0 1011403
17:00+19ssw3359100 0.0 1011307
20:00+14ssw238134 0.1 1011172
26 may, thu
thu2623:00+12ssw239459 0.1 1013121
02:00+12wsw239422 0.0 101194
05:00+11wsw239563 0.0 1012137
08:00+12sw248973 0.0 1014239
11:00+15sw3479100 0.1 1014351
14:00+17ssw3368100 0.0 1014389
17:00+15ssw3374100 0.0 1013298
20:00+13sw2385100 0.0 1014215
27 may, fri
fri2723:00+11s129340 0.0 1016131
02:00+11s119393 0.0 1015162
05:00+11ssw019252 0.0 1016155
08:00+13sse1183100 0.0 1016182
11:00+18ssw3259100 0.0 1016459
14:00+20sw4453100 0.1 1016765
17:00+22wsw253882 0.1 1014916
20:00+17n1258100 0.0 1015104
28 may, sat
sat2823:00+13ne1175100 0.0 101653
02:00+12e228491 0.0 101555
05:00+12ene118747 0.0 101527
08:00+14s117995 0.0 1015299
11:00+18sw455780 0.0 1014928
14:00+20wsw565168 0.0 10131165
17:00+19w67579 0.0 1013925
20:00+15nw69750 0.0 1013380
29 may, sun
sun2923:00+10nw357910 0.0 1014167
02:00+9nnw24838 0.0 1014166
05:00+8n12858 0.0 1014122
08:00+10nnw25720 0.0 1015385
11:00+17nw35370 0.0 1013914
14:00+19nw78340 0.0 10121139
17:00+16wnw810450 0.0 1012763
20:00+11nw510680 0.0 1012574